When you browse on this site, cookies collect data to enhance your experience and personalize the content and advertising you see.
Visit our Privacy Policy to learn more. By continuing to use the site, you agree to this use of cookies and data.

Hourly Weather Nam Dinh

Today, 20 September, Sunday

Time Temperature Precipitation Wind Pressure Humidity
00:00 +25°C° 7.3 mm 4 mps 756 mmHg 97%
01:00 +25°C° 0 mm 4 mps 756 mmHg 96%
02:00 +25°C° 1.4 mm 3 mps 755 mmHg 97%
03:00 +25°C° 1.4 mm 3 mps 755 mmHg 97%
04:00 +25°C° 1.4 mm 3 mps 755 mmHg 97%
05:00 +25°C° 0.8 mm 3 mps 755 mmHg 97%
06:00 +25°C° 0.8 mm 3 mps 756 mmHg 97%
07:00 +25°C° 0 mm 3 mps 756 mmHg 98%
08:00 +26°C° 0.3 mm 3 mps 757 mmHg 97%
09:00 +26°C° 0.3 mm 2 mps 757 mmHg 96%
10:00 +26°C° 0.3 mm 2 mps 758 mmHg 95%
11:00 +27°C° 0 mm 2 mps 757 mmHg 95%
12:00 +27°C° 0 mm 2 mps 757 mmHg 94%
13:00 +27°C° 0 mm 1 mps 756 mmHg 92%
14:00 +27°C° 0.1 mm 1 mps 756 mmHg 92%
15:00 +27°C° 0.1 mm 1 mps 756 mmHg 91%
16:00 +26°C° 0.1 mm 0 mps 755 mmHg 90%
17:00 +25°C° 0 mm 0 mps 755 mmHg 91%
18:00 +25°C° 0 mm 0 mps 756 mmHg 92%
19:00 +24°C° 0 mm 0 mps 756 mmHg 94%
20:00 +24°C° 0 mm 0 mps 756 mmHg 94%
21:00 +24°C° 0 mm 0 mps 757 mmHg 94%
22:00 +24°C° 0 mm 0 mps 758 mmHg 94%
23:00 +24°C° 0.1 mm 0 mps 757 mmHg 94%

Tomorrow, 21 September, Monday

Time Temperature Precipitation Wind Pressure Humidity
00:00 +24°C° 0.1 mm 0 mps 757 mmHg 94%
01:00 +24°C° 0.1 mm 0 mps 756 mmHg 94%
02:00 +24°C° 1.5 mm 0 mps 756 mmHg 95%
03:00 +26°C° 1.5 mm 1 mps 756 mmHg 95%
04:00 +26°C° 1.5 mm 1 mps 756 mmHg 96%
05:00 +26°C° 1.3 mm 1 mps 756 mmHg 96%
06:00 +26°C° 1.3 mm 1 mps 756 mmHg 95%
07:00 +27°C° 1.3 mm 1 mps 756 mmHg 95%
08:00 +28°C° 0.5 mm 1 mps 756 mmHg 91%
09:00 +29°C° 0.5 mm 1 mps 757 mmHg 87%
10:00 +31°C° 0.5 mm 1 mps 757 mmHg 83%
11:00 +31°C° 1.5 mm 1 mps 756 mmHg 82%
12:00 +31°C° 1.5 mm 2 mps 756 mmHg 81%
13:00 +33°C° 1.5 mm 3 mps 755 mmHg 79%
14:00 +31°C° 0.2 mm 3 mps 754 mmHg 81%
15:00 +31°C° 0.2 mm 3 mps 754 mmHg 83%
16:00 +30°C° 0.2 mm 3 mps 753 mmHg 84%
17:00 +29°C° 0 mm 3 mps 754 mmHg 86%
18:00 +29°C° 0 mm 2 mps 754 mmHg 88%
19:00 +28°C° 0 mm 2 mps 754 mmHg 90%
20:00 +28°C° 0 mm 2 mps 755 mmHg 90%
21:00 +28°C° 0 mm 2 mps 755 mmHg 91%
22:00 +28°C° 0 mm 2 mps 756 mmHg 91%
23:00 +28°C° 0 mm 2 mps 756 mmHg 91%

Day after tomorrow, 22 September, Tuesday

Time Temperature Precipitation Wind Pressure Humidity
00:00 +28°C° 0 mm 2 mps 756 mmHg 92%
01:00 +28°C° 0 mm 2 mps 755 mmHg 92%
02:00 +28°C° 0 mm 2 mps 755 mmHg 92%
03:00 +27°C° 0 mm 2 mps 755 mmHg 93%
04:00 +27°C° 0 mm 2 mps 755 mmHg 93%
05:00 +28°C° 0.1 mm 2 mps 755 mmHg 92%
06:00 +28°C° 0.1 mm 2 mps 755 mmHg 91%
07:00 +28°C° 0.1 mm 2 mps 756 mmHg 90%
08:00 +30°C° 0.8 mm 2 mps 756 mmHg 86%
09:00 +31°C° 0.8 mm 3 mps 756 mmHg 83%
10:00 +33°C° 0.8 mm 4 mps 756 mmHg 79%
11:00 +33°C° 0.3 mm 4 mps 755 mmHg 77%
12:00 +34°C° 0.3 mm 4 mps 754 mmHg 75%
13:00 +34°C° 0.3 mm 5 mps 753 mmHg 73%
14:00 +34°C° 0 mm 5 mps 753 mmHg 75%
15:00 +33°C° 0 mm 5 mps 752 mmHg 76%
16:00 +33°C° 0 mm 5 mps 752 mmHg 78%
17:00 +32°C° 0 mm 4 mps 752 mmHg 82%
18:00 +32°C° 0 mm 4 mps 753 mmHg 85%
19:00 +30°C° 0 mm 4 mps 754 mmHg 88%
20:00 +30°C° 0 mm 3 mps 754 mmHg 89%
21:00 +29°C° 0 mm 3 mps 755 mmHg 90%
22:00 +29°C° 0 mm 3 mps 755 mmHg 90%
23:00 +29°C° 0.1 mm 3 mps 755 mmHg 91%

23 September, Wednesday

Time Temperature Precipitation Wind Pressure Humidity
00:00 +29°C° 0.1 mm 3 mps 755 mmHg 92%
01:00 +29°C° 0.1 mm 4 mps 754 mmHg 92%
02:00 +29°C° 0.5 mm 4 mps 754 mmHg 92%
03:00 +29°C° 0.5 mm 4 mps 754 mmHg 92%
04:00 +29°C° 0.5 mm 4 mps 754 mmHg 92%
05:00 +29°C° 2.5 mm 4 mps 754 mmHg 91%
06:00 +29°C° 2.5 mm 5 mps 754 mmHg 90%
07:00 +30°C° 2.5 mm 5 mps 755 mmHg 89%
08:00 +29°C° 6.3 mm 5 mps 755 mmHg 90%
09:00 +29°C° 6.3 mm 5 mps 755 mmHg 91%
10:00 +29°C° 6.3 mm 4 mps 755 mmHg 92%
11:00 +30°C° 3.7 mm 4 mps 755 mmHg 89%
12:00 +32°C° 3.7 mm 4 mps 754 mmHg 86%
13:00 +32°C° 3.7 mm 4 mps 754 mmHg 84%
14:00 +31°C° 1.9 mm 3 mps 754 mmHg 85%
15:00 +31°C° 1.9 mm 3 mps 754 mmHg 86%
16:00 +31°C° 1.9 mm 3 mps 754 mmHg 86%
17:00 +30°C° 1.9 mm 3 mps 754 mmHg 88%
18:00 +30°C° 1.9 mm 3 mps 754 mmHg 90%
19:00 +29°C° 1.9 mm 3 mps 755 mmHg 92%
20:00 +29°C° 2.7 mm 2 mps 755 mmHg 91%
21:00 +29°C° 2.7 mm 2 mps 756 mmHg 91%
22:00 +29°C° 2.7 mm 2 mps 757 mmHg 91%
23:00 +28°C° 1.4 mm 2 mps 756 mmHg 91%

24 September, Thursday

Time Temperature Precipitation Wind Pressure Humidity
00:00 +28°C° 1.4 mm 2 mps 756 mmHg 91%
01:00 +28°C° 1.4 mm 2 mps 756 mmHg 91%
02:00 +28°C° 0.3 mm 2 mps 755 mmHg 91%
03:00 +27°C° 0.3 mm 2 mps 755 mmHg 92%
04:00 +27°C° 0.3 mm 2 mps 755 mmHg 92%
05:00 +27°C° 0.3 mm 2 mps 756 mmHg 92%
06:00 +27°C° 0.3 mm 2 mps 756 mmHg 92%
07:00 +27°C° 0.3 mm 3 mps 757 mmHg 92%
08:00 +28°C° 1.1 mm 3 mps 757 mmHg 90%
09:00 +28°C° 1.1 mm 3 mps 757 mmHg 88%
10:00 +29°C° 1.1 mm 3 mps 757 mmHg 86%
11:00 +29°C° 1.7 mm 3 mps 757 mmHg 86%
12:00 +29°C° 1.7 mm 2 mps 756 mmHg 86%
13:00 +29°C° 1.7 mm 2 mps 756 mmHg 86%
14:00 +29°C° 1.4 mm 3 mps 755 mmHg 87%
15:00 +29°C° 1.4 mm 3 mps 755 mmHg 87%
16:00 +29°C° 1.4 mm 3 mps 755 mmHg 88%
17:00 +28°C° 1.2 mm 3 mps 755 mmHg 89%
18:00 +28°C° 1.2 mm 3 mps 755 mmHg 91%
19:00 +27°C° 1.2 mm 3 mps 756 mmHg 93%
20:00 +27°C° 1.9 mm 3 mps 756 mmHg 93%
21:00 +27°C° 1.9 mm 3 mps 757 mmHg 94%
22:00 +27°C° 1.9 mm 3 mps 757 mmHg 95%
23:00 +27°C° 0.9 mm 3 mps 757 mmHg 95%

25 September, Friday

Time Temperature Precipitation Wind Pressure Humidity
00:00 +26°C° 0.9 mm 3 mps 756 mmHg 96%
01:00 +26°C° 0.9 mm 2 mps 756 mmHg 96%
02:00 +26°C° 0.6 mm 2 mps 756 mmHg 96%
03:00 +26°C° 0.6 mm 2 mps 755 mmHg 96%
04:00 +26°C° 0.6 mm 2 mps 755 mmHg 96%
05:00 +26°C° 0.6 mm 2 mps 755 mmHg 96%
06:00 +26°C° 0.6 mm 2 mps 755 mmHg 96%
07:00 +26°C° 0.6 mm 2 mps 756 mmHg 95%
08:00 +27°C° 1 mm 2 mps 756 mmHg 93%
09:00 +28°C° 1 mm 2 mps 756 mmHg 90%
10:00 +29°C° 1 mm 2 mps 756 mmHg 88%
11:00 +30°C° 1.2 mm 2 mps 755 mmHg 86%
12:00 +30°C° 1.2 mm 3 mps 754 mmHg 83%
13:00 +31°C° 1.2 mm 3 mps 753 mmHg 81%
14:00 +31°C° 0.2 mm 3 mps 753 mmHg 80%
15:00 +32°C° 0.2 mm 4 mps 753 mmHg 80%
16:00 +32°C° 0.2 mm 4 mps 752 mmHg 79%
17:00 +30°C° 0 mm 3 mps 753 mmHg 82%
18:00 +29°C° 0 mm 2 mps 753 mmHg 84%
19:00 +28°C° 0 mm 2 mps 753 mmHg 87%
20:00 +28°C° 0 mm 2 mps 754 mmHg 87%
21:00 +28°C° 0 mm 2 mps 754 mmHg 87%
22:00 +28°C° 0 mm 2 mps 755 mmHg 87%
23:00 +28°C° 0.6 mm 2 mps 755 mmHg 88%
Show more